TimeCST,TemperatureF,Dew PointF,Humidity,Sea Level PressureIn,VisibilityMPH,Wind Direction,Wind SpeedMPH,Gust SpeedMPH,PrecipitationIn,Events,Conditions,WindDirDegrees,DateUTC
12:53 AM,39.0,34.0,82,30.34,10.0,Calm,Calm,-,N/A,,Clear,0,2012-11-17 06:53:00
1:53 AM,39.0,34.0,82,30.34,10.0,Calm,Calm,-,N/A,,Clear,0,2012-11-17 07:53:00
2:53 AM,39.0,33.1,79,30.34,10.0,NE,4.6,-,N/A,,Clear,40,2012-11-17 08:53:00
3:53 AM,36.0,33.1,89,30.35,10.0,Calm,Calm,-,N/A,,Clear,0,2012-11-17 09:53:00
4:53 AM,36.0,33.1,89,30.37,10.0,Calm,Calm,-,N/A,,Clear,0,2012-11-17 10:53:00
5:53 AM,37.0,34.0,89,30.39,10.0,Calm,Calm,-,N/A,,Clear,0,2012-11-17 11:53:00
6:53 AM,36.0,33.1,89,30.40,8.0,Calm,Calm,-,N/A,,Clear,0,2012-11-17 12:53:00
7:53 AM,45.0,37.0,74,30.42,9.0,Calm,Calm,-,N/A,,Clear,0,2012-11-17 13:53:00
8:53 AM,53.1,37.9,57,30.43,10.0,East,6.9,-,N/A,,Clear,90,2012-11-17 14:53:00
9:53 AM,57.0,37.0,47,30.43,10.0,ESE,3.5,-,N/A,,Clear,120,2012-11-17 15:53:00
10:53 AM,59.0,33.1,38,30.42,10.0,East,9.2,-,N/A,,Clear,90,2012-11-17 16:53:00
11:53 AM,62.1,33.1,34,30.38,10.0,ENE,9.2,-,N/A,,Clear,70,2012-11-17 17:53:00
12:53 PM,64.0,30.9,29,30.35,10.0,East,9.2,-,N/A,,Clear,90,2012-11-17 18:53:00
1:53 PM,64.9,33.1,31,30.33,10.0,NE,6.9,-,N/A,,Clear,50,2012-11-17 19:53:00
2:53 PM,66.0,32.0,28,30.33,10.0,NNE,10.4,-,N/A,,Clear,20,2012-11-17 20:53:00
3:53 PM,64.0,33.1,31,30.33,10.0,NNE,10.4,-,N/A,,Clear,30,2012-11-17 21:53:00
4:53 PM,57.9,35.1,42,30.32,10.0,North,4.6,-,N/A,,Clear,10,2012-11-17 22:53:00
5:53 PM,53.1,37.0,55,30.34,10.0,Calm,Calm,-,N/A,,Clear,0,2012-11-17 23:53:00
6:53 PM,48.9,37.0,64,30.35,10.0,NE,4.6,-,N/A,,Clear,50,2012-11-18 00:53:00
7:53 PM,45.0,39.0,80,30.36,10.0,Calm,Calm,-,N/A,,Clear,0,2012-11-18 01:53:00
8:53 PM,44.1,37.0,76,30.36,10.0,Calm,Calm,-,N/A,,Clear,0,2012-11-18 02:53:00
9:53 PM,44.1,37.0,76,30.36,10.0,Calm,Calm,-,N/A,,Clear,0,2012-11-18 03:53:00
10:53 PM,41.0,37.0,86,30.36,10.0,Calm,Calm,-,N/A,,Clear,0,2012-11-18 04:53:00
11:53 PM,39.9,36.0,86,30.37,10.0,Calm,Calm,-,N/A,,Clear,0,2012-11-18 05:53:00